Date,TemperatureHighF,TemperatureAvgF,TemperatureLowF,DewpointHighF,DewpointAvgF,DewpointLowF,HumidityHigh,HumidityAvg,HumidityLow,PressureMaxIn,PressureMinIn,WindSpeedMaxMPH,WindSpeedAvgMPH,GustSpeedMaxMPH,PrecipitationSumIn
2013-3-1,45,42,37,-100,-100,-100,0,0,100,0.00,40.00,0,-999,0,0.01
2013-3-2,46,41,33,-100,-100,-100,0,0,100,0.00,40.00,0,-999,0,0.01
2013-3-3,36,32,28,-100,-100,-100,0,0,100,0.00,40.00,0,-999,0,0.01
2013-3-4,39,31,24,-100,-100,-100,0,0,100,0.00,40.00,0,-999,0,0.01
2013-3-5,34,32,29,-100,-100,-100,0,0,100,0.00,40.00,0,-999,0,0.01
2013-3-6,36,33,31,-100,-100,-100,0,0,100,0.00,40.00,0,-999,0,0.02
2013-3-7,40,33,28,-100,-100,-100,0,0,100,0.00,40.00,0,-999,0,0.01
2013-3-8,44,35,28,-100,-100,-100,0,0,100,0.00,40.00,0,-999,0,0.01
2013-3-9,47,39,33,-100,-100,-100,0,0,100,0.00,40.00,0,-999,0,0.00
2013-3-10,45,40,33,-100,-100,-100,0,0,100,0.00,40.00,0,-999,0,0.00
2013-3-11,45,41,38,-100,-100,-100,0,0,100,0.00,40.00,0,-999,0,0.00
2013-3-12,46,43,41,-100,-100,-100,0,0,100,0.00,40.00,0,-999,0,0.00
2013-3-13,53,46,40,-100,-100,-100,0,0,100,0.00,40.00,0,-999,0,0.00
2013-3-14,54,45,40,-100,-100,-100,0,0,100,0.00,40.00,0,-999,0,0.00
2013-3-15,47,43,40,-100,-100,-100,0,0,100,0.00,40.00,0,-999,0,0.01
2013-3-16,42,37,30,-100,-100,-100,0,0,100,0.00,40.00,0,-999,0,0.04
2013-3-17,33,30,28,-100,-100,-100,0,0,100,0.00,40.00,0,-999,0,0.03
2013-3-18,38,33,29,-100,-100,-100,0,0,100,0.00,40.00,0,-999,0,0.00
2013-3-19,36,32,27,-100,-100,-100,0,0,100,0.00,40.00,0,-999,0,0.01
2013-3-20,41,35,29,-100,-100,-100,0,0,100,0.00,40.00,0,-999,0,0.05
2013-3-21,35,30,27,-100,-100,-100,0,0,100,0.00,40.00,0,-999,0,0.02
2013-3-22,33,29,25,-100,-100,-100,0,0,100,0.00,40.00,0,-999,0,0.01
2013-3-23,37,30,24,-100,-100,-100,0,0,100,0.00,40.00,0,-999,0,0.00
2013-3-24,38,33,27,-100,-100,-100,0,0,100,0.00,40.00,0,-999,0,0.00
2013-3-25,45,37,29,-100,-100,-100,0,0,100,0.00,40.00,0,-999,0,0.00
2013-3-26,45,39,33,-100,-100,-100,0,0,100,0.00,40.00,0,-999,0,0.00
2013-3-27,49,41,35,-100,-100,-100,0,0,100,0.00,40.00,0,-999,0,0.00
2013-3-28,51,42,36,-100,-100,-100,0,0,100,0.00,40.00,0,-999,0,0.00
2013-3-29,54,45,38,-100,-100,-100,0,0,100,0.00,40.00,0,-999,0,0.00
2013-3-30,57,47,39,-100,-100,-100,0,0,100,0.00,40.00,0,-999,0,0.00
2013-3-31,58,48,40,-100,-100,-100,0,0,100,0.00,40.00,0,-999,0,0.00